Grand Junction, CO

8:18 PM MST on February 25, 2017 (GMT -0700)
Walker

Weather History for KGJT - October, 2010

Change the Weather History Date:

Thursday, October 21, 2010

  Actual Average Record
Temperature  
Mean Temperature 57 °F 51 °F  
Max Temperature 66 °F 64 °F 80 °F (2003)
Min Temperature 47 °F 38 °F 22 °F (1905)
Degree Days  
Heating Degree Days 8 14  
Month to date heating degree days 108 210  
Since 1 July heating degree days 120 284  
Cooling Degree Days 0 0  
Month to date cooling degree days 12 1  
Year to date cooling degree days 1277 1123  
Growing Degree Days 6 (Base 50)    
Moisture  
Dew Point 40 °F    
Average Humidity 64    
Maximum Humidity 93    
Minimum Humidity 34    
Precipitation  
Precipitation 0.50 in 0.03 in 0.50 in (2010)
Month to date precipitation 0.66 0.75  
Year to date precipitation 6.84 7.79  
Snow  
Snow 0.00 in 0.00 in 1.00 in (1908)
Month to date snowfall 0.0 0.2  
Since 1 July snowfall 0.0 0.2  
Since 1 September snowfall 0.0 0.2  
Snow Depth 0.00 in    
Sea Level Pressure  
Sea Level Pressure 29.90 in    
Wind  
Wind Speed 8 mph (East)    
Max Wind Speed 21 mph    
Max Gust Speed 24 mph    
Visibility 10 miles    
Events Rain    
T = Trace of Precipitation, MM = Missing Value Source: NWS Daily Summary

Daily Weather History Graph

Daily Weather History Graph

Search for Another Location

Airport or City:

Trip Planner

Search our weather history database for the weather conditions in past years. The results will help you decide how hot, cold, wet, or windy it might be!

Date:

Astronomy

Oct. 21, 2010 Rise Set
Actual Time 7:29 AM MDT 6:26 PM MDT
Civil Twilight 7:02 AM MDT 6:54 PM MDT
Nautical Twilight 6:31 AM MDT 7:25 PM MDT
Astronomical Twilight 6:00 AM MDT 7:56 PM MDT
Moon 5:28 PM MDT (10/21) 6:13 AM MDT (10/21)
Length of Visible Light 11h 51m
Length of Day
10h 56m
Waxing Gibbous, 98% of the Moon is Illuminated
Oct 21
Waxing Gibbous
Oct 22
Full
Oct 30
Last Quarter
Nov 5
New
Nov 13
First Quarter

Hourly Weather History & Observations

Time (MDT) Temp. Dew Point Humidity Pressure Visibility Wind Dir Wind Speed Gust Speed Precip Events Conditions
12:53 AM 54.0 °F 30.9 °F 41% 29.94 in 10.0 mi NE 8.1 mph - N/A   Clear
1:53 AM 54.0 °F 33.1 °F 45% 29.96 in 10.0 mi East 3.5 mph - N/A   Clear
2:53 AM 53.1 °F 35.1 °F 50% 29.96 in 10.0 mi NE 8.1 mph - N/A   Clear
3:53 AM 55.9 °F 39.9 °F 55% 29.93 in 10.0 mi ENE 9.2 mph 17.3 mph N/A   Clear
4:53 AM 53.1 °F 39.0 °F 59% 29.94 in 10.0 mi East 9.2 mph - N/A   Clear
5:53 AM 50.0 °F 37.0 °F 61% 29.95 in 10.0 mi ESE 9.2 mph - N/A   Clear
6:53 AM 46.9 °F 36.0 °F 66% 29.96 in 10.0 mi East 5.8 mph - N/A   Clear
7:53 AM 48.0 °F 37.0 °F 66% 29.96 in 10.0 mi ENE 8.1 mph - N/A   Clear
8:53 AM 48.9 °F 35.1 °F 59% 29.97 in 10.0 mi ESE 6.9 mph - N/A   Clear
9:53 AM 55.9 °F 36.0 °F 47% 29.93 in 10.0 mi ESE 12.7 mph - N/A   Clear
10:53 AM 61.0 °F 36.0 °F 39% 29.91 in 10.0 mi ENE 8.1 mph - N/A   Unknown
11:53 AM 60.1 °F 36.0 °F 41% 29.91 in 10.0 mi North - - N/A   Unknown
12:53 PM 63.0 °F 36.0 °F 37% 29.86 in 10.0 mi Calm Calm - N/A   Unknown
1:53 PM 66.0 °F 37.9 °F 36% 29.81 in 10.0 mi WNW 6.9 mph - N/A   Clear
2:53 PM 64.9 °F 37.0 °F 36% 29.79 in 10.0 mi NW 8.1 mph - N/A   Clear
3:53 PM 64.0 °F 37.9 °F 38% 29.78 in 10.0 mi NNW 5.8 mph - N/A   Mostly Cloudy
4:53 PM 63.0 °F 42.1 °F 46% 29.79 in 10.0 mi South 4.6 mph - 0.00 in Rain Light Rain
5:53 PM 55.9 °F 46.9 °F 72% 29.84 in 10.0 mi South 9.2 mph - 0.00 in Rain Light Rain
6:53 PM 52.0 °F 48.0 °F 86% 29.88 in 9.0 mi SE 18.4 mph - 0.00 in Rain Light Rain
7:53 PM 50.0 °F 46.9 °F 89% 29.90 in 10.0 mi ESE 16.1 mph - 0.06 in Rain Light Rain
8:53 PM 50.0 °F 46.9 °F 89% 29.91 in 7.0 mi SE 11.5 mph - 0.08 in Rain Rain
9:53 PM 48.9 °F 46.0 °F 90% 29.90 in 6.0 mi ESE 10.4 mph - 0.10 in Rain Rain
10:53 PM 48.9 °F 46.9 °F 93% 29.89 in 7.0 mi SE 6.9 mph - 0.11 in Rain Rain
11:53 PM 48.0 °F 46.9 °F 96% 29.88 in 8.0 mi ESE 6.9 mph - 0.13 in Rain Light Rain